sat.trackr.live / text

‹ back to catalog

STARLINK-32598

NORAD 62046 · 2024-216Q

PAYLOAD ACTIVE UNKNOWN

§ Identity

Operator
Country
US
Launch date
2024-11-21
Launch site
AFETR
Launch vehicle
Mass (kg)
RCS (m²)

Purposes: comms

External: N2YO · Heavens-Above · Gunter

§ Orbital elements

Epoch: 2026-09-21T06:38:23.449920Z

Period
94.27 min
Inclination
42.9997°
Eccentricity
0.0000986
Mean motion
15.27582949 rev/d
Perigee alt
482.4 km
Apogee alt
483.7 km
Semi-major
6,861.2 km
B*
3.0766e-4
RAAN
231.2709°
Arg perigee
277.5795°
Mean anomaly
82.4944°
Rev number
10,379

§ Raw data

STARLINK-325981 62046U 24216Q   26264.27666030  .00008214  00000+0  30766-3 0  99922 62046  42.9997 231.2709 0000986 277.5795  82.4944 15.27582949103792

JSON: /api/v1/satellites/62046 · /tle

For live sub-satellite position, see the globe view (requires WebGL).

§ Visibility from observer

Set your observer location to see the next 7 days of passes ≥ 10°. The values pass through the URL so the page stays shareable.

No JS? Fill the form by hand. The geolocation button needs JavaScript.